SR5NLK-1 Weather Reports


time (UTC)temp
C
wind
direction
speed
KPH
gust
KPH
rain 1hr
cm
rain 24hr
cm
rain mn
cm
humidity
%
barometer
mb
20230208162546 -1 157 3.2 3.2 0.00 0.00 0.00 74 1015.6
20230208162046 -1 157 1.6 3.2 0.00 0.00 0.00 74 987.2
20230208161618 -1 135 0.0 1.6 0.00 0.00 0.00 74 959.8
20230208161546 -1 135 0.0 1.6 0.00 0.00 0.00 74 959.8
20230208160625 -1 157 0.0 1.6 0.00 0.00 0.00 73 936.9
20230208160545 -1 157 0.0 1.6 0.00 0.00 0.00 73 936.9
20230208160130 -1 180 0.0 3.2 0.00 0.00 0.00 73 997.8
20230208160046 -1 180 0.0 3.2 0.00 0.00 0.00 73 997.8
20230208155546 0 202 1.6 3.2 0.00 0.00 0.00 73 1025.9
20230208155046 0 180 0.0 6.4 0.00 0.00 0.00 72 1056.1
20230208154625 0 180 6.4 6.4 0.00 0.00 0.00 72 979.1
20230208154546 0 180 6.4 6.4 0.00 0.00 0.00 72 979.1
20230208154046 0 157 4.8 6.4 0.00 0.00 0.00 72 1014.8
20230208153705 0 180 3.2 3.2 0.00 0.00 0.00 71 975.8
20230208153545 0 180 3.2 3.2 0.00 0.00 0.00 71 975.8
20230208153132 0 157 1.6 3.2 0.00 0.00 0.00 71 930.3
20230208153046 0 157 1.6 3.2 0.00 0.00 0.00 71 930.3
20230208152546 0 180 0.0 6.4 0.00 0.00 0.00 71 945.3
20230208152117 0 180 3.2 9.7 0.00 0.00 0.00 71 922.7
20230208152046 0 180 3.2 9.7 0.00 0.00 0.00 71 922.7
20230208151546 0 180 1.6 6.4 0.00 0.00 0.00 71 1016.6
20230208151046 1 180 6.4 8.0 0.00 0.00 0.00 71 1030.5
20230208150709 1 157 4.8 8.0 0.00 0.00 0.00 71 983.8
20230208150545 1 157 4.8 8.0 0.00 0.00 0.00 71 983.8
20230208150046 1 135 6.4 6.4 0.00 0.00 0.00 71 1001.0
20230208145120 1 247 0.0 3.2 0.00 0.00 0.00 70 1019.7
20230208145046 1 247 0.0 3.2 0.00 0.00 0.00 70 1019.7
20230208144702 1 135 0.0 3.2 0.00 0.00 0.00 70 1069.3
20230208144628 1 135 0.0 3.2 0.00 0.00 0.00 70 1069.3
20230208144546 1 135 0.0 3.2 0.00 0.00 0.00 70 1069.3
20230208144046 1 135 0.0 0.0 0.00 0.00 0.00 69 890.3
20230208143733 1 225 0.0 0.0 0.00 0.00 0.00 69 954.7
20230208143545 1 225 0.0 0.0 0.00 0.00 0.00 69 954.7
20230208143154 1 180 0.0 0.0 0.00 0.00 0.00 69 987.1
20230208143046 1 180 0.0 0.0 0.00 0.00 0.00 69 987.1
20230208142046 1 270 0.0 3.2 0.00 0.00 0.00 68 906.6
20230208141546 2 202 1.6 4.8 0.00 0.00 0.00 68 987.2
20230208141046 2 202 0.0 3.2 0.00 0.00 0.00 67 947.6
20230208140630 2 225 0.0 8.0 0.00 0.00 0.00 67 1007.3
20230208140545 2 225 0.0 8.0 0.00 0.00 0.00 67 1007.3
20230208140132 3 180 6.4 11.3 0.00 0.00 0.00 67 920.5
20230208140046 3 180 6.4 11.3 0.00 0.00 0.00 67 920.5
20230208135546 4 180 9.7 9.7 0.00 0.00 0.00 67 1024.9
20230208135151 4 180 6.4 19.3 0.00 0.00 0.00 68 979.5
20230208135046 4 180 6.4 19.3 0.00 0.00 0.00 68 979.5
20230208134627 5 247 6.4 12.9 0.00 0.00 0.00 68 945.4
20230208134546 5 247 6.4 12.9 0.00 0.00 0.00 68 945.4
20230208133545 3 157 3.2 8.0 0.00 0.00 0.00 70 971.6
20230208133046 3 157 0.0 9.7 0.00 0.00 0.00 70 977.6
20230208132546 3 180 8.0 11.3 0.00 0.00 0.00 70 973.2
20230208132046 3 157 6.4 16.1 0.00 0.00 0.00 70 950.1
20230208131546 3 180 4.8 9.7 0.00 0.00 0.00 70 910.6
20230208131046 3 135 6.4 14.5 0.00 0.00 0.00 70 931.3
20230208130642 3 180 6.4 17.7 0.00 0.00 0.00 69 895.3
20230208130545 3 180 6.4 17.7 0.00 0.00 0.00 69 895.3
20230208130157 3 157 4.8 16.1 0.00 0.00 0.00 70 993.2
20230208130046 3 157 4.8 16.1 0.00 0.00 0.00 70 993.2
20230208125546 3 90 3.2 11.3 0.00 0.00 0.00 70 999.7
20230208125140 3 157 4.8 16.1 0.00 0.00 0.00 70 906.8
20230208125046 3 157 4.8 16.1 0.00 0.00 0.00 70 906.8
20230208124546 3 135 0.0 9.7 0.00 0.00 0.00 71 878.6
20230208124046 3 135 0.0 11.3 0.00 0.00 0.00 71 977.9
20230208123631 3 157 6.4 12.9 0.00 0.00 0.00 71 1064.8
20230208123545 3 157 6.4 12.9 0.00 0.00 0.00 71 1064.8
20230208123144 3 157 4.8 14.5 0.00 0.00 0.00 72 984.2
20230208123046 3 157 4.8 14.5 0.00 0.00 0.00 72 984.2
20230208122546 3 112 3.2 12.9 0.00 0.00 0.00 72 977.9
20230208122046 3 180 11.3 16.1 0.00 0.00 0.00 72 945.4
20230208121637 3 135 8.0 12.9 0.00 0.00 0.00 72 974.7
20230208121546 3 135 8.0 12.9 0.00 0.00 0.00 72 974.7
20230208120629 3 180 8.0 19.3 0.00 0.00 0.00 72 929.9
20230208120546 3 180 8.0 19.3 0.00 0.00 0.00 72 929.9
20230208120155 3 202 12.9 14.5 0.00 0.00 0.00 72 1014.9
20230208120046 3 202 12.9 14.5 0.00 0.00 0.00 72 1014.9
20230208115546 3 202 4.8 11.3 0.00 0.00 0.00 72 935.9
20230208115144 3 135 8.0 16.1 0.00 0.00 0.00 72 1013.4
20230208115046 3 135 8.0 16.1 0.00 0.00 0.00 72 1013.4
20230208114546 3 180 14.5 14.5 0.00 0.00 0.00 72 945.1
20230208114046 3 135 0.0 17.7 0.00 0.00 0.00 72 954.7
20230208113631 3 180 9.7 14.5 0.00 0.00 0.00 73 946.9
20230208113546 3 180 9.7 14.5 0.00 0.00 0.00 73 946.9
20230208113046 4 135 11.3 17.7 0.00 0.00 0.00 74 980.8
20230208112046 4 135 0.0 14.5 0.00 0.00 0.00 76 970.1
20230208111047 4 157 3.2 9.7 0.00 0.00 0.00 77 981.0
20230208110723 4 135 6.4 6.4 0.00 0.00 0.00 78 1032.2
20230208110640 4 135 6.4 6.4 0.00 0.00 0.00 78 1032.2
20230208110546 4 135 6.4 6.4 0.00 0.00 0.00 78 1032.2
20230208110046 4 135 3.2 4.8 0.00 0.00 0.00 78 939.2
20230208105547 3 180 4.8 6.4 0.00 0.00 0.00 78 1038.3
20230208105259 3 157 8.0 9.7 0.00 0.00 0.00 79 1000.4
20230208105047 3 157 8.0 9.7 0.00 0.00 0.00 79 1000.4
20230208104624 3 157 3.2 8.0 0.00 0.00 0.00 79 886.1
20230208104547 3 157 3.2 8.0 0.00 0.00 0.00 79 886.1
20230208104047 3 202 6.4 9.7 0.00 0.00 0.00 79 936.0
20230208103739 3 180 3.2 11.3 0.00 0.00 0.00 79 939.2
20230208103701 3 180 3.2 11.3 0.00 0.00 0.00 79 939.2
20230208103546 3 180 3.2 11.3 0.00 0.00 0.00 79 939.2
20230208102547 3 157 3.2 6.4 0.00 0.00 0.00 79 902.6
20230208102047 3 180 4.8 6.4 0.00 0.00 0.00 79 1007.3
20230208101047 3 135 3.2 9.7 0.00 0.00 0.00 79 895.9
20230208100546 3 157 4.8 9.7 0.00 0.00 0.00 79 962.4
20230208100047 3 157 9.7 9.7 0.00 0.00 0.00 79 1014.0
20230208095547 3 135 6.4 9.7 0.00 0.00 0.00 80 984.1
20230208094547 3 157 4.8 11.3 0.00 0.00 0.00 81 954.7
20230208094047 3 135 0.0 8.0 0.00 0.00 0.00 81 1063.7
20230208093546 3 157 4.8 9.7 0.00 0.00 0.00 82 966.1
20230208093047 3 225 1.6 8.0 0.00 0.00 0.00 82 948.4
20230208092547 3 180 1.6 8.0 0.00 0.00 0.00 82 948.4
20230208092047 3 202 3.2 9.7 0.00 0.00 0.00 83 1010.4
20230208091646 2 157 1.6 6.4 0.00 0.00 0.00 83 978.0
20230208091547 2 157 1.6 6.4 0.00 0.00 0.00 83 978.0
20230208090802 2 157 6.4 8.0 0.00 0.00 0.00 84 991.9
20230208090546 2 157 6.4 8.0 0.00 0.00 0.00 84 991.9
20230208090247 2 157 1.6 9.7 0.00 0.00 0.00 84 932.6
20230208090047 2 157 1.6 9.7 0.00 0.00 0.00 84 932.6
20230208085547 2 180 4.8 6.4 0.00 0.00 0.00 85 944.3
20230208085047 2 135 6.4 9.7 0.00 0.00 0.00 85 1031.9
20230208084547 2 135 4.8 8.0 0.00 0.00 0.00 86 960.8
20230208084047 2 180 1.6 6.4 0.00 0.00 0.00 86 911.9
20230208083629 2 180 1.6 6.4 0.00 0.00 0.00 86 1016.6
20230208083546 2 180 1.6 6.4 0.00 0.00 0.00 86 1016.6
20230208083151 2 157 4.8 4.8 0.00 0.00 0.00 86 948.6
20230208083047 2 157 4.8 4.8 0.00 0.00 0.00 86 948.6
20230208082547 1 135 3.2 3.2 0.00 0.00 0.00 86 966.2
20230208082047 1 135 0.0 4.8 0.00 0.00 0.00 86 1049.1
20230208081547 1 135 0.0 6.4 0.00 0.00 0.00 87 939.0
20230208081047 1 112 1.6 3.2 0.00 0.00 0.00 87 971.6
20230208080743 1 90 0.0 3.2 0.00 0.00 0.00 87 977.9
20230208080546 1 90 0.0 3.2 0.00 0.00 0.00 87 977.9
20230208080141 1 202 0.0 3.2 0.00 0.00 0.00 87 1019.8
20230208080047 1 202 0.0 3.2 0.00 0.00 0.00 87 1019.8
20230208075547 1 135 0.0 3.2 0.00 0.00 0.00 87 987.2
20230208075047 1 112 0.0 4.8 0.00 0.00 0.00 87 900.3
20230208074547 0 157 0.0 4.8 0.00 0.00 0.00 87 1010.3
20230208074047 0 112 4.8 6.4 0.00 0.00 0.00 87 887.9
20230208073546 0 112 0.0 4.8 0.00 0.00 0.00 87 1013.4
20230208073047 0 135 3.2 4.8 0.00 0.00 0.00 87 993.3
20230208072547 0 135 1.6 4.8 0.00 0.00 0.00 87 944.5
20230208072047 0 135 0.0 3.2 0.00 0.00 0.00 87 941.4
20230208071547 0 67 0.0 4.8 0.00 0.00 0.00 87 891.1
20230208071047 0 67 0.0 4.8 0.00 0.00 0.00 87 993.3
20230208070546 0 112 1.6 4.8 0.00 0.00 0.00 87 939.1
20230208070047 0 90 3.2 4.8 0.00 0.00 0.00 87 957.7
20230208065547 0 112 0.0 1.6 0.00 0.00 0.00 87 900.3
20230208065047 0 135 0.0 3.2 0.00 0.00 0.00 87 999.6
20230208064547 0 90 3.2 3.2 0.00 0.00 0.00 87 930.2
20230208064047 0 135 3.2 3.2 0.00 0.00 0.00 87 971.6
20230208063546 0 112 3.2 3.2 0.00 0.00 0.00 86 974.7
20230208063048 0 90 0.0 3.2 0.00 0.00 0.00 86 993.2
20230208062547 0 135 1.6 3.2 0.00 0.00 0.00 86 923.6
20230208062047 0 90 1.6 3.2 0.00 0.00 0.00 86 903.5
20230208061047 0 22 0.0 1.6 0.00 0.00 0.00 86 1064.8
20230208060546 0 45 1.6 3.2 0.00 0.00 0.00 86 932.9
20230208060228 0 90 3.2 3.2 0.00 0.00 0.00 86 968.5
20230208060047 0 90 3.2 3.2 0.00 0.00 0.00 86 968.5
20230208055547 0 112 0.0 3.2 0.00 0.00 0.00 86 974.8
20230208055129 0 67 1.6 4.8 0.00 0.00 0.00 86 974.7
20230208055047 0 67 1.6 4.8 0.00 0.00 0.00 86 974.7
20230208054639 0 112 0.0 1.6 0.00 0.00 0.00 86 971.7
20230208054547 0 112 0.0 1.6 0.00 0.00 0.00 86 971.7
20230208054047 0 67 0.0 1.6 0.00 0.00 0.00 86 954.6
20230208053737 0 67 0.0 3.2 0.00 0.00 0.00 86 940.8
20230208053546 0 67 0.0 3.2 0.00 0.00 0.00 86 940.8
20230208053241 0 45 3.2 4.8 0.00 0.00 0.00 86 925.8
20230208053048 0 45 3.2 4.8 0.00 0.00 0.00 86 925.8
20230208052547 0 67 0.0 3.2 0.00 0.00 0.00 86 954.5
20230208052047 0 90 0.0 0.0 0.00 0.00 0.00 86 984.4
20230208051547 0 112 0.0 1.6 0.00 0.00 0.00 86 912.6
20230208051047 0 112 0.0 3.2 0.00 0.00 0.00 86 971.6
20230208050714 0 45 1.6 3.2 0.00 0.00 0.00 86 1022.8
20230208050546 0 45 1.6 3.2 0.00 0.00 0.00 86 1022.8
20230208050047 0 67 1.6 3.2 0.00 0.00 0.00 86 996.5
20230208045707 0 90 0.0 3.2 0.00 0.00 0.00 86 1001.8
20230208045547 0 90 0.0 3.2 0.00 0.00 0.00 86 1001.8
20230208044047 0 45 0.0 3.2 0.00 0.00 0.00 86 962.6
20230208043546 0 0 1.6 3.2 0.00 0.00 0.00 86 942.2
20230208043047 0 22 0.0 1.6 0.00 0.00 0.00 86 1019.6
20230208042547 0 45 0.0 0.0 0.00 0.00 0.00 86 993.3
20230208042047 0 22 0.0 1.6 0.00 0.00 0.00 86 923.8
20230208040721 0 0 1.6 1.6 0.00 0.00 0.00 86 912.8
20230208040546 0 0 1.6 1.6 0.00 0.00 0.00 86 912.8
20230208040218 0 112 0.0 0.0 0.00 0.00 0.00 86 1042.8
20230208040047 0 112 0.0 0.0 0.00 0.00 0.00 86 1042.8
20230208035547 0 67 0.0 0.0 0.00 0.00 0.00 86 969.4
20230208035209 0 67 0.0 1.6 0.00 0.00 0.00 86 900.4
20230208035047 0 67 0.0 1.6 0.00 0.00 0.00 86 900.4
20230208034048 0 292 0.0 0.0 0.00 0.00 0.00 86 891.5
20230208033733 0 292 0.0 0.0 0.00 0.00 0.00 86 954.6
20230208033547 0 292 0.0 0.0 0.00 0.00 0.00 86 954.6
20230208033047 0 270 0.0 1.6 0.00 0.00 0.00 86 923.9
20230208032548 0 45 0.0 0.0 0.00 0.00 0.00 86 993.0
20230208031047 0 270 0.0 0.0 0.00 0.00 0.00 86 950.2
20230208030722 0 292 0.0 0.0 0.00 0.00 0.00 86 992.6
20230208030547 0 292 0.0 0.0 0.00 0.00 0.00 86 992.6
20230208030048 0 337 0.0 1.6 0.00 0.00 0.00 86 949.9
20230208025548 0 292 0.0 0.0 0.00 0.00 0.00 86 951.4
20230208025229 0 337 0.0 1.6 0.00 0.00 0.00 86 971.5
20230208025048 0 337 0.0 1.6 0.00 0.00 0.00 86 971.5
20230208024048 0 315 3.2 4.8 0.00 0.00 0.00 86 900.4
20230208023709 0 337 3.2 3.2 0.00 0.00 0.00 86 944.0
20230208023547 0 337 3.2 3.2 0.00 0.00 0.00 86 944.0
20230208023134 0 0 1.6 3.2 0.00 0.00 0.00 86 943.5
20230208023048 0 0 1.6 3.2 0.00 0.00 0.00 86 943.5
20230208022547 0 292 3.2 3.2 0.00 0.00 0.00 86 928.4
20230208022047 0 315 0.0 1.6 0.00 0.00 0.00 86 973.1
20230208021048 0 0 1.6 3.2 0.00 0.00 0.00 86 922.1
20230208020547 0 270 0.0 3.2 0.00 0.00 0.00 86 888.0
20230208020138 0 22 1.6 3.2 0.00 0.00 0.00 86 917.6
20230208020048 0 22 1.6 3.2 0.00 0.00 0.00 86 917.6
20230208015642 0 337 0.0 1.6 0.00 0.00 0.00 86 971.5
20230208015548 0 337 0.0 1.6 0.00 0.00 0.00 86 971.5
20230208015141 0 270 0.0 6.4 0.00 0.00 0.00 86 954.6
20230208015047 0 270 0.0 6.4 0.00 0.00 0.00 86 954.6
20230208014047 0 270 1.6 4.8 0.00 0.00 0.00 86 936.3
20230208013547 0 292 1.6 3.2 0.00 0.00 0.00 86 915.8
20230208013203 0 337 1.6 4.8 0.00 0.00 0.00 86 1019.7
20230208013048 0 337 1.6 4.8 0.00 0.00 0.00 86 1019.7
20230208012548 0 270 1.6 4.8 0.00 0.00 0.00 86 977.9
20230208012048 0 292 3.2 4.8 0.00 0.00 0.00 85 987.2
20230208011048 0 292 3.2 6.4 0.00 0.00 0.00 85 928.1
20230208010622 0 292 1.6 4.8 0.00 0.00 0.00 85 985.1
20230208010547 0 292 1.6 4.8 0.00 0.00 0.00 85 985.1
20230208010134 0 270 1.6 3.2 0.00 0.00 0.00 85 974.8
20230208010048 0 270 1.6 3.2 0.00 0.00 0.00 85 974.8
20230208005548 0 270 0.0 3.2 0.00 0.00 0.00 85 887.3
20230208005202 0 315 3.2 3.2 0.00 0.00 0.00 85 903.5
20230208005048 0 315 3.2 3.2 0.00 0.00 0.00 85 903.5
20230208004548 0 292 0.0 3.2 0.00 0.00 0.00 85 935.1
20230208004048 0 292 1.6 3.2 0.00 0.00 0.00 85 912.7
20230208003618 0 292 1.6 1.6 0.00 0.00 0.00 85 945.3
20230208003547 0 292 1.6 1.6 0.00 0.00 0.00 85 945.3
20230208003048 0 292 0.0 3.2 0.00 0.00 0.00 85 1007.5
20230208002642 0 292 1.6 1.6 0.00 0.00 0.00 85 987.3
20230208002548 0 292 1.6 1.6 0.00 0.00 0.00 85 987.3
20230208002119 0 292 0.0 3.2 0.00 0.00 0.00 85 1029.1
20230208002048 0 292 0.0 3.2 0.00 0.00 0.00 85 1029.1
20230208001719 0 292 0.0 1.6 0.00 0.00 0.00 84 957.6
20230208001646 0 292 0.0 1.6 0.00 0.00 0.00 84 957.6
20230208001548 0 292 0.0 1.6 0.00 0.00 0.00 84 957.6
20230208001048 0 292 1.6 1.6 0.00 0.00 0.00 84 951.5
20230208000547 0 292 0.0 3.2 0.00 0.00 0.00 84 936.0
20230208000048 0 292 1.6 3.2 0.00 0.00 0.00 84 948.5
20230207235548 0 292 3.2 3.2 0.00 0.00 0.00 84 929.8
20230207235048 0 315 3.2 3.2 0.00 0.00 0.00 84 909.7
20230207234633 0 292 0.0 1.6 0.00 0.00 0.00 84 1020.3
20230207234553 0 292 0.0 1.6 0.00 0.00 0.00 84 1020.3
20230207234551 0 292 0.0 1.6 0.00 0.00 0.00 84 1020.3
20230207234548 0 292 0.0 1.6 0.00 0.00 0.00 84 1020.3
20230207234048 0 270 0.0 3.2 0.00 0.00 0.00 84 982.0
20230207233721 0 292 3.2 3.2 0.00 0.00 0.00 84 955.3
20230207233547 0 292 3.2 3.2 0.00 0.00 0.00 84 955.3
20230207233154 0 270 0.0 1.6 0.00 0.00 0.00 84 989.9
20230207233048 0 270 0.0 1.6 0.00 0.00 0.00 84 989.9
20230207232548 0 270 1.6 1.6 0.00 0.00 0.00 84 933.0
20230207232048 0 180 0.0 0.0 0.00 0.00 0.00 84 987.1
20230207231548 0 180 0.0 0.0 0.00 0.00 0.00 84 960.8
20230207231048 0 202 0.0 0.0 0.00 0.00 0.00 84 1007.7
20230207230654 0 247 0.0 0.0 0.00 0.00 0.00 84 929.9
20230207230547 0 247 0.0 0.0 0.00 0.00 0.00 84 929.9
20230207230048 0 247 0.0 0.0 0.00 0.00 0.00 84 965.9
20230207225548 0 292 0.0 0.0 0.00 0.00 0.00 84 942.3
20230207225048 0 292 0.0 0.0 0.00 0.00 0.00 84 987.5
20230207224709 0 292 0.0 0.0 0.00 0.00 0.00 84 965.9
20230207224548 0 292 0.0 0.0 0.00 0.00 0.00 84 965.9
20230207224048 0 292 0.0 0.0 0.00 0.00 0.00 84 969.0
20230207223748 0 292 0.0 3.2 0.00 0.00 0.00 84 980.5
20230207223547 0 292 0.0 3.2 0.00 0.00 0.00 84 980.5
20230207223150 0 315 0.0 3.2 0.00 0.00 0.00 84 903.4
20230207223048 0 315 0.0 3.2 0.00 0.00 0.00 84 903.4
20230207222548 0 22 0.0 0.0 0.00 0.00 0.00 84 942.2
20230207222048 0 112 0.0 0.0 0.00 0.00 0.00 84 900.9
20230207221705 0 22 0.0 1.6 0.00 0.00 0.00 84 962.2
20230207221548 0 22 0.0 1.6 0.00 0.00 0.00 84 962.2
20230207221048 0 315 1.6 6.4 0.00 0.00 0.00 84 1008.9
20230207220725 0 270 3.2 4.8 0.00 0.00 0.00 84 965.4
20230207220547 0 270 3.2 4.8 0.00 0.00 0.00 84 965.4
20230207215548 0 292 1.6 3.2 0.00 0.00 0.00 84 933.5
20230207215143 0 270 0.0 4.8 0.00 0.00 0.00 84 974.7
20230207215048 0 270 0.0 4.8 0.00 0.00 0.00 84 974.7
20230207214548 0 292 0.0 6.4 0.00 0.00 0.00 84 970.1
20230207214130 0 337 1.6 8.0 0.00 0.00 0.00 84 1025.9
20230207214048 0 337 1.6 8.0 0.00 0.00 0.00 84 1025.9
20230207213727 0 270 4.8 9.7 0.00 0.00 0.00 84 971.7
20230207213547 0 270 4.8 9.7 0.00 0.00 0.00 84 971.7
20230207213048 0 270 0.0 8.0 0.00 0.00 0.00 84 915.8
20230207212548 0 337 3.2 6.4 0.00 0.00 0.00 84 977.9
20230207212048 0 315 1.6 6.4 0.00 0.00 0.00 84 984.1
20230207211647 0 315 4.8 8.0 0.00 0.00 0.00 84 945.3
20230207211548 0 315 4.8 8.0 0.00 0.00 0.00 84 945.3
20230207211048 0 315 9.7 11.3 0.00 0.00 0.00 84 932.9
20230207210802 0 315 4.8 11.3 0.00 0.00 0.00 84 970.1
20230207210547 0 315 4.8 11.3 0.00 0.00 0.00 84 970.1
20230207210048 0 292 4.8 11.3 0.00 0.00 0.00 84 942.2
20230207205548 0 292 6.4 6.4 0.00 0.00 0.00 84 936.2
20230207204548 0 292 8.0 8.0 0.00 0.00 0.00 84 983.1
20230207204048 0 292 8.0 8.0 0.00 0.00 0.00 84 974.7
20230207203547 0 315 4.8 8.0 0.00 0.00 0.00 84 1039.7
20230207203048 0 270 8.0 11.3 0.00 0.00 0.00 84 952.1
20230207202548 0 292 6.4 8.0 0.00 0.00 0.00 84 1022.8
20230207202048 0 315 4.8 8.0 0.00 0.00 0.00 84 1055.2
20230207201548 0 292 8.0 11.3 0.00 0.00 0.00 84 916.3
20230207201048 0 292 8.0 8.0 0.00 0.00 0.00 84 990.4
20230207200547 0 292 1.6 11.3 0.00 0.00 0.00 84 1052.2
20230207200048 0 270 4.8 9.7 0.00 0.00 0.00 84 979.1
20230207195548 0 270 3.2 9.7 0.00 0.00 0.00 84 986.5
20230207195048 0 270 3.2 8.0 0.00 0.00 0.00 84 940.2
20230207194548 0 292 8.0 9.7 0.00 0.00 0.00 84 1004.1
20230207194048 0 292 4.8 12.9 0.00 0.00 0.00 84 961.5
20230207193547 0 292 3.2 12.9 0.00 0.00 0.00 84 984.0
20230207193048 0 292 3.2 11.3 0.00 0.00 0.00 84 941.7
20230207192048 0 292 12.9 12.9 0.00 0.00 0.00 84 929.8
20230207191048 0 292 6.4 11.3 0.00 0.00 0.00 84 898.9
20230207190547 0 292 11.3 12.9 0.00 0.00 0.00 84 969.9
20230207190048 0 292 4.8 9.7 0.00 0.00 0.00 84 1045.9
20230207185548 0 315 4.8 12.9 0.00 0.00 0.00 84 987.1
20230207185049 0 270 6.4 9.7 0.00 0.00 0.00 84 987.4
20230207184548 0 270 4.8 9.7 0.00 0.00 0.00 84 974.6
20230207183547 0 292 1.6 11.3 0.00 0.00 0.00 84 964.6
20230207183048 0 0 4.8 9.7 0.00 0.00 0.00 84 946.4
20230207182548 0 292 4.8 9.7 0.00 0.00 0.00 84 1025.9
20230207182049 0 337 6.4 11.3 0.00 0.00 0.00 84 982.8
20230207181548 0 292 6.4 12.9 0.00 0.00 0.00 84 942.3
20230207181049 0 292 4.8 8.0 0.00 0.00 0.00 84 949.1
20230207180548 0 292 6.4 11.3 0.00 0.00 0.00 84 958.7
20230207180048 0 292 4.8 11.3 0.00 0.00 0.00 84 900.4
20230207175548 0 270 9.7 20.9 0.00 0.00 0.00 84 926.7
20230207174548 0 292 4.8 11.3 0.00 0.00 0.00 84 942.2
20230207174049 0 292 6.4 11.3 0.00 0.00 0.00 84 943.6
20230207173548 0 292 4.8 11.3 0.00 0.00 0.00 83 1067.9
20230207173048 0 337 4.8 11.3 0.00 0.00 0.00 83 982.6
20230207172548 0 315 11.3 14.5 0.00 0.00 0.00 83 932.9
20230207172048 0 292 4.8 14.5 0.00 0.00 0.00 83 932.9
20230207171548 0 292 9.7 11.3 0.00 0.00 0.00 83 984.1
20230207171048 0 292 11.3 11.3 0.00 0.00 0.00 83 984.1
20230207170548 0 292 6.4 9.7 0.00 0.00 0.00 83 1087.7
20230207170049 0 292 4.8 12.9 0.00 0.00 0.00 83 1022.8
20230207165640 0 292 6.4 12.9 0.00 0.00 0.00 84 987.1
20230207165548 0 292 6.4 12.9 0.00 0.00 0.00 84 987.1
20230207165049 0 270 3.2 16.1 0.00 0.00 0.00 84 940.9
20230207164620 0 270 4.8 8.0 0.00 0.00 0.00 84 1015.7
20230207164548 0 270 4.8 8.0 0.00 0.00 0.00 84 1015.7
20230207163621 0 292 9.7 11.3 0.00 0.00 0.00 84 968.5
20230207163548 0 292 9.7 11.3 0.00 0.00 0.00 84 968.5
20230207163049 0 292 8.0 9.7 0.00 0.00 0.00 83 962.3